Change the Weather History Date:

Tuesday, December 18, 2012

  Actual Average Record
Temperature  
Mean Temperature 44 °F -  
Max Temperature 63 °F 50 °F 64 °F (2006)
Min Temperature 25 °F 23 °F 3 °F (1996)
Degree Days  
Heating Degree Days 21    
Moisture  
Dew Point 25 °F    
Average Humidity 49    
Maximum Humidity 79    
Minimum Humidity 24    
Precipitation  
Precipitation 0.00 in - - ()
Sea Level Pressure  
Sea Level Pressure 29.82 in    
Wind  
Wind Speed 5 mph (SSE)    
Max Wind Speed 15 mph    
Max Gust Speed -    
Visibility 10 miles    
Events      
Averages and records for this station are not official NWS values.
T = Trace of Precipitation, MM = Missing Value Source: NWS Daily Summary

Daily Weather History Graph

Daily Weather History Graph

Search for Another Location

Airport or City:

Trip Planner

Search our weather history database for the weather conditions in past years. The results will help you decide how hot, cold, wet, or windy it might be!

Date:

Astronomy

Dec. 18, 2012 Rise Set
Actual Time 7:01 AM MST 5:01 PM MST
Civil Twilight 6:34 AM MST 5:28 PM MST
Nautical Twilight 6:03 AM MST 5:59 PM MST
Astronomical Twilight 5:33 AM MST 6:29 PM MST
Moon 11:00 AM MST (12/18) 11:10 PM MST (12/18)
Length of Visible Light 10h 54m
Length of Day
9h 59m
Waxing Crescent, 35% of the Moon is Illuminated
Dec 18
Waxing Crescent
Dec 19
First Quarter
Dec 28
Full
Jan 4
Last Quarter
Jan 11
New

Hourly Weather History & Observations

Time (MST) Temp. Windchill Dew Point Humidity Pressure Visibility Wind Dir Wind Speed Gust Speed Precip Events Conditions
12:58 AM 28.2 °F - 19.9 °F 71% 29.95 in 10.0 mi East 1.2 mph - N/A   Clear
1:58 AM 34.7 °F 27.5 °F 24.8 °F 67% 29.90 in 10.0 mi SE 9.2 mph - N/A   Clear
2:58 AM 30.4 °F - 20.3 °F 66% 29.89 in 10.0 mi Calm Calm - N/A   Clear
3:58 AM 31.1 °F - 21.9 °F 69% 29.88 in 10.0 mi Calm Calm - N/A   Clear
4:58 AM 27.5 °F 21.1 °F 20.3 °F 74% 29.88 in 10.0 mi Variable 5.8 mph - N/A   Clear
5:58 AM 25.0 °F - 18.9 °F 78% 29.94 in 10.0 mi East 2.3 mph - N/A   Clear
6:58 AM 25.0 °F - 18.7 °F 77% 29.94 in 10.0 mi Calm Calm - N/A   Clear
7:58 AM 29.7 °F - 23.7 °F 79% 29.94 in 10.0 mi Calm Calm - N/A   Clear
8:58 AM 40.3 °F 37.1 °F 29.1 °F 64% 29.94 in 10.0 mi SSE 4.6 mph - N/A   Clear
9:58 AM 46.0 °F 43.1 °F 30.0 °F 54% 29.93 in 10.0 mi South 5.8 mph - N/A   Clear
10:58 AM 51.6 °F - 31.1 °F 45% 29.90 in 10.0 mi South 8.1 mph - N/A   Clear
11:58 AM 56.5 °F - 30.2 °F 37% 29.85 in 10.0 mi South 9.2 mph - N/A   Clear
12:58 PM 60.4 °F - 26.6 °F 28% 29.81 in 10.0 mi South 6.9 mph - N/A   Clear
1:58 PM 63.0 °F - 25.9 °F 24% 29.74 in 10.0 mi SSE 10.4 mph - N/A   Clear
2:58 PM 62.4 °F - 26.2 °F 25% 29.73 in 10.0 mi SSE 6.9 mph - N/A   Clear
3:58 PM 61.0 °F - 26.2 °F 27% 29.73 in 10.0 mi SSE 9.2 mph - N/A   Clear
4:58 PM 58.5 °F - 26.1 °F 29% 29.73 in 10.0 mi South 9.2 mph - N/A   Clear
5:58 PM 54.0 °F - 26.1 °F 34% 29.76 in 10.0 mi SSE 9.2 mph - N/A   Partly Cloudy
6:58 PM 51.3 °F - 25.9 °F 37% 29.75 in 10.0 mi SE 9.2 mph - N/A   Clear
7:58 PM 48.4 °F - 25.9 °F 42% 29.73 in 10.0 mi SSE 8.1 mph - N/A   Partly Cloudy
8:58 PM 46.8 °F - 25.9 °F 44% 29.71 in 10.0 mi SSE 9.2 mph - N/A   Partly Cloudy
9:58 PM 48.0 °F - 25.5 °F 41% 29.68 in 10.0 mi SSE 15.0 mph - N/A   Partly Cloudy
10:58 PM 48.7 °F - 24.3 °F 38% 29.68 in 10.0 mi SSE 12.7 mph - N/A   Clear
11:58 PM 49.1 °F - 22.1 °F 35% 29.65 in 10.0 mi SE 13.8 mph - N/A   Clear